Tracking 31027 objects as of 19-Jul-2025
HD Live streaming from Space Station
objects crossing your sky now

ARIANE 2 DEB

Track ARIANE 2 DEB now!


NORAD ID: 27030
Int'l Code: 1989-006K
Perigee: 472.6 km
Apogee: 34,315.9 km
Inclination: 8.2 °
Period: 607.7 minutes
Semi major axis: 23765 km
RCS: 0.3251 m2 (medium)
Launch date: January 27, 1989
Source: France (FR)
Launch site: FRENCH GUIANA (FRGUI)

Note: This is SATELLITE DEBRIS
Your satellite tracking list
KORSAT 7
Track 1 satellite(s)




NASA's NSSDC Master Catalog

Two Line Element Set (TLE):
1 27030U 89006K   25199.83483926  .00001213  00000-0  63170-2 0  9990
2 27030   8.2236  91.3969 7120328  46.4798 353.8712  2.36967309202225
Source of the keplerian elements: AFSPC